This is the latest recevied weather packets stored in our database for station/object HOWARD. If no packets are shown the sender has not sent any weather packets the latest 10 day(s).
| Time | Temp. | Humidity | Pressure | Rain* | Wind** | Luminosity | Snow |
|---|---|---|---|---|---|---|---|
| 1777986151 | 4.44° C | 68% | 1008.6 hPa | 0 mm | - | - | - |
| 1777986108 | 4.44° C | 68% | 1008.6 hPa | 0 mm | - | - | - |
| 1777985508 | 3.89° C | 74% | 1008.5 hPa | 0 mm | - | - | - |
| 1777984908 | 3.89° C | 76% | 1008.4 hPa | 0 mm | - | - | - |
| 1777984308 | 3.89° C | 78% | 1008.3 hPa | 0 mm | - | - | - |
| 1777983708 | 3.89° C | 78% | 1008.3 hPa | 0 mm | - | - | - |
| 1777983108 | 3.89° C | 78% | 1008.3 hPa | 0 mm | - | - | - |
| 1777982510 | 3.89° C | 79% | 1008.3 hPa | 0 mm | - | - | - |
| 1777982041 | 3.89° C | 79% | 1008.3 hPa | 0 mm | - | - | - |
| 1777981908 | 3.89° C | 79% | 1008.3 hPa | 0 mm | - | - | - |
| 1777981308 | 3.89° C | 78% | 1008.3 hPa | 0 mm | - | - | - |
| 1777980709 | 3.89° C | 78% | 1008.4 hPa | 0 mm | - | - | - |
| 1777980108 | 3.89° C | 80% | 1008.4 hPa | 0 mm | - | - | - |
| 1777979508 | 3.33° C | 81% | 1008.4 hPa | 0 mm | - | - | - |
| 1777978909 | 3.33° C | 80% | 1008.3 hPa | 0 mm | - | - | - |
| 1777978308 | 3.89° C | 80% | 1008.3 hPa | 0 mm | - | - | - |
| 1777977708 | 3.89° C | 80% | 1008.3 hPa | 0 mm | - | - | - |
| 1777977107 | 3.89° C | 78% | 1008.2 hPa | 0 mm | - | - | - |
| 1777976508 | 3.89° C | 78% | 1008.2 hPa | 0 mm | - | - | - |
| 1777975907 | 3.89° C | 78% | 1008.3 hPa | 0 mm | - | - | - |
| 1777975308 | 3.89° C | 77% | 1008.3 hPa | 0 mm | - | - | - |
| 1777974708 | 4.44° C | 76% | 1008.3 hPa | 0 mm | - | - | - |
| 1777974108 | 4.44° C | - | 1008.4 hPa | 0 mm | - | - | - |
| 1777973509 | 5° C | 76% | 1008.5 hPa | 0 mm | - | - | - |
| 1777972907 | 5° C | 74% | 1008.4 hPa | 0 mm | - | - | - |
* Rain latest hour (hover to see other rain measurements)
** Current wind speed in m/s (hover to see current wind gust speed)